DW5595 Weather Reports


Display with metric or nautical units.
time (UTC)temp
F
wind
direction
speed
MPH
gust
MPH
rain 1hr
in
rain 24hr
in
rain mn
in
humidity
%
barometer
mb
20260510204527 80 150 0.0 11.0 0.00 0.00 0.00 35 1014.6
20260510203016 80 159 2.0 8.0 0.00 0.00 0.00 33 1014.7
20260510201514 80 180 1.0 6.0 0.00 0.00 0.00 32 1014.8
20260510200013 80 182 1.0 10.0 0.00 0.00 0.00 31 1014.9
20260510193008 80 130 2.0 8.0 0.00 0.00 0.00 30 1015.3
20260510191505 80 207 1.0 5.0 0.00 0.00 0.00 34 1015.4
20260510190023 80 136 1.0 6.0 0.00 0.00 0.00 38 1015.3
20260510184527 80 172 4.0 8.0 0.00 0.00 0.00 29 1015.4
20260510183019 80 360 0.0 6.0 0.00 0.00 0.00 28 1015.5
20260510180013 79 138 3.0 5.0 0.00 0.00 0.00 30 1015.7
20260510174511 79 138 3.0 8.0 0.00 0.00 0.00 32 1015.8
20260510173006 79 228 0.0 4.0 0.00 0.00 0.00 27 1015.9
20260510171524 79 157 0.0 8.0 0.00 0.00 0.00 29 1016.1
20260510170020 79 141 1.0 2.0 0.00 0.00 0.00 33 1016.4
20260510164515 78 131 1.0 4.0 0.00 0.00 0.00 34 1016.4
20260510163016 78 5 0.0 2.0 0.00 0.00 0.00 32 1016.5
20260510161529 76 302 0.0 4.0 0.00 0.00 0.00 28 1016.6
20260510160007 75 14 2.0 4.0 0.00 0.00 0.00 38 1016.6
20260510154509 75 18 2.0 5.0 0.00 0.00 0.00 42 1016.6
20260510153022 74 303 2.0 4.0 0.00 0.00 0.00 42 1016.7
20260510151522 74 352 4.0 7.0 0.00 0.00 0.00 44 1016.8
20260510150020 72 188 0.0 2.0 0.00 0.00 0.00 55 1016.7
20260510144523 71 173 1.0 3.0 0.00 0.00 0.00 58 1016.6
20260510143024 71 9 1.0 2.0 0.00 0.00 0.00 60 1016.6
20260510141509 70 339 0.0 5.0 0.00 0.00 0.00 60 1016.8
20260510140008 69 331 2.0 4.0 0.00 0.00 0.00 64 1016.7
20260510134524 68 307 1.0 5.0 0.00 0.00 0.00 68 1016.7
20260510133022 67 269 1.0 5.0 0.00 0.00 0.00 69 1016.5
20260510131520 63 340 2.0 5.0 0.00 0.00 0.00 81 1016.5
20260510130016 59 96 0.0 1.0 0.00 0.00 0.00 97 1016.3
20260510123014 55 176 0.0 0.0 0.00 0.00 0.00 97 1016.3
20260510121506 54 176 0.0 0.0 0.00 0.00 0.00 96 1016.0
20260510120014 52 176 0.0 0.0 0.00 0.00 0.00 96 1015.7
20260510114504 51 176 0.0 0.0 0.00 0.00 0.00 96 1015.7
20260510113019 51 178 0.0 0.0 0.00 0.00 0.00 96 1015.4
20260510111521 51 178 0.0 0.0 0.00 0.00 0.00 95 1015.2
20260510110032 50 178 0.0 0.0 0.00 0.00 0.00 95 1015.1
20260510104517 50 178 0.0 0.0 0.00 0.00 0.00 95 1014.9
20260510103019 51 178 0.0 0.0 0.00 0.00 0.00 95 1014.5
20260510101510 51 178 0.0 0.0 0.00 0.00 0.00 95 1014.2
20260510100025 51 178 0.0 0.0 0.00 0.00 0.00 95 1014.0
20260510094522 52 178 0.0 0.0 0.00 0.00 0.00 95 1013.8
20260510091519 52 245 0.0 0.0 0.00 0.00 0.00 94 1013.5
20260510090025 53 245 0.0 0.0 0.00 0.00 0.00 94 1013.4
20260510083013 54 245 0.0 0.0 0.00 0.00 0.00 94 1013.1
20260510081527 54 245 0.0 0.0 0.00 0.00 0.00 95 1013.0
20260510080024 55 245 0.0 0.0 0.00 0.00 0.00 94 1012.9
20260510074525 55 245 0.0 0.0 0.00 0.00 0.00 95 1012.9
20260510073020 55 245 0.0 0.0 0.00 0.00 0.00 95 1012.8
20260510071521 55 245 0.0 0.0 0.00 0.00 0.00 95 1012.6
20260510070014 55 245 0.0 0.0 0.00 0.00 0.00 94 1012.4
20260510064509 56 245 0.0 0.0 0.00 0.00 0.00 94 1012.4
20260510063027 56 245 0.0 0.0 0.00 0.00 0.00 94 1012.5
20260510061526 56 245 0.0 0.0 0.00 0.00 0.00 94 1012.4
20260510060023 56 245 0.0 0.0 0.00 0.00 0.00 94 1012.5
20260510054523 57 251 0.0 0.0 0.00 0.00 0.00 94 1012.6
20260510053018 57 251 0.0 0.0 0.00 0.00 0.00 94 1012.7
20260510051516 57 144 0.0 0.0 0.00 0.00 0.00 93 1012.8
20260510050012 58 144 0.0 0.0 0.00 0.00 0.00 94 1012.8
20260510043010 58 144 0.0 0.0 0.00 0.00 0.00 93 1012.8
20260510041525 58 144 0.0 0.0 0.00 0.00 0.00 93 1012.8
20260510040024 59 144 0.0 0.0 0.00 0.00 0.00 93 1013.0
20260510034519 59 144 0.0 0.0 0.00 0.00 0.00 92 1013.0
20260510033016 60 144 0.0 0.0 0.00 0.00 0.00 91 1013.0
20260510031519 60 144 0.0 0.0 0.00 0.00 0.00 1012.8
20260510030012 61 144 0.0 0.0 0.00 0.00 0.00 90 1012.8
20260510024526 61 144 0.0 0.0 0.00 0.00 0.00 90 1012.7
20260510023022 62 144 0.0 0.0 0.00 0.00 0.00 89 1012.5
20260510021522 62 144 0.0 0.0 0.00 0.00 0.00 88 1012.4
20260510020018 63 144 0.0 0.0 0.00 0.00 0.00 86 1012.3
20260510014519 63 163 0.0 0.0 0.00 0.00 0.00 86 1012.2
20260510013015 64 163 0.0 2.0 0.00 0.00 0.00 85 1012.0
20260510011512 65 343 0.0 1.0 0.00 0.00 0.00 82 1011.8
20260510010026 66 262 0.0 4.0 0.00 0.00 0.00 81 1011.6
20260510004524 66 157 1.0 3.0 0.00 0.00 0.00 80 1011.2
20260510003027 67 134 0.0 3.0 0.00 0.00 0.00 80 1011.0
20260510001529 67 184 0.0 4.0 0.00 0.00 0.00 79 1010.7
20260510000015 68 165 0.0 2.0 0.00 0.00 0.00 78 1010.5
20260509234516 69 151 0.0 1.0 0.00 0.00 0.00 76 1010.5
20260509233022 70 161 0.0 3.0 0.00 0.00 0.00 74 1010.4
20260509230026 70 133 1.0 5.0 0.00 0.00 0.00 72 1010.2
20260509224532 71 150 1.0 5.0 0.00 0.00 0.00 72 1010.2
20260509223025 71 113 3.0 11.0 0.00 0.00 0.00 71 1010.1
20260509221530 71 162 1.0 6.0 0.00 0.00 0.00 70 1009.8
20260509220016 71 170 3.0 7.0 0.00 0.00 0.00 69 1009.6
20260509214513 71 192 1.0 6.0 0.00 0.00 0.00 69 1009.5
20260509213025 72 148 1.0 10.0 0.00 0.00 0.00 70 1009.5